When you browse on this site, cookies collect data to enhance your experience and personalize the content and advertising you see.
Visit our Privacy Policy to learn more. By continuing to use the site, you agree to this use of cookies and data.
  • în România
  • Lista ţărilor
  • Pe 7 zile
  • Temperatura apei
  • Meteo pe hartă
  • Widget-uri
  • user-avatar
    Intrare

    Meteo pe oră la Lisburn

    Astăzi, 20 Februarie, Joi

    Timp Temperatura Precipitaţii Vânt Presiune Umiditate
    00:00 +8°C° 0.4 mm 5 m/s 744 mmHg 96%
    01:00 +8°C° 2 mm 5 m/s 744 mmHg 95%
    02:00 +7°C° 2 mm 6 m/s 743 mmHg 95%
    03:00 +7°C° 2 mm 6 m/s 742 mmHg 95%
    04:00 +5°C° 1.2 mm 6 m/s 742 mmHg 95%
    05:00 +4°C° 1.2 mm 6 m/s 742 mmHg 94%
    06:00 +3°C° 1.2 mm 6 m/s 743 mmHg 94%
    07:00 +3°C° 0.3 mm 7 m/s 743 mmHg 92%
    08:00 +2°C° 0.3 mm 7 m/s 744 mmHg 90%
    09:00 0°C° 0.3 mm 7 m/s 745 mmHg 88%
    10:00 +1°C° 0.1 mm 8 m/s 746 mmHg 82%
    11:00 +1°C° 0.1 mm 9 m/s 747 mmHg 77%
    12:00 +1°C° 0.1 mm 9 m/s 748 mmHg 71%
    13:00 +1°C° 0.1 mm 10 m/s 748 mmHg 71%
    14:00 +1°C° 0.1 mm 10 m/s 749 mmHg 71%
    15:00 +1°C° 0.1 mm 11 m/s 749 mmHg 71%
    16:00 +1°C° 0.1 mm 10 m/s 751 mmHg 74%
    17:00 0°C° 0.1 mm 9 m/s 752 mmHg 77%
    18:00 0°C° 0.1 mm 9 m/s 753 mmHg 80%
    19:00 0°C° 0 mm 8 m/s 753 mmHg 82%
    20:00 0°C° 0 mm 8 m/s 754 mmHg 85%
    21:00 0°C° 0 mm 8 m/s 754 mmHg 87%
    22:00 0°C° 0 mm 8 m/s 755 mmHg 87%
    23:00 0°C° 0 mm 8 m/s 755 mmHg 86%

    Mâine, 21 Februarie, Vineri

    Timp Temperatura Precipitaţii Vânt Presiune Umiditate
    00:00 0°C° 0 mm 8 m/s 756 mmHg 85%
    01:00 +1°C° 0 mm 8 m/s 755 mmHg 85%
    02:00 +1°C° 0 mm 9 m/s 755 mmHg 85%
    03:00 +2°C° 0 mm 9 m/s 754 mmHg 84%
    04:00 +2°C° 0.1 mm 10 m/s 754 mmHg 85%
    05:00 +3°C° 0.1 mm 10 m/s 753 mmHg 85%
    06:00 +3°C° 0.1 mm 10 m/s 753 mmHg 86%
    13:00 +7°C° 0.2 mm 10 m/s 750 mmHg 90%
    14:00 +7°C° 0.2 mm 10 m/s 750 mmHg 90%
    15:00 +7°C° 0.2 mm 10 m/s 749 mmHg 91%
    16:00 +8°C° 0.5 mm 10 m/s 749 mmHg 91%
    17:00 +8°C° 0.5 mm 10 m/s 748 mmHg 91%
    18:00 +8°C° 0.5 mm 10 m/s 748 mmHg 91%
    19:00 +8°C° 0.3 mm 10 m/s 748 mmHg 91%
    20:00 +8°C° 0.3 mm 10 m/s 748 mmHg 90%
    21:00 +8°C° 0.3 mm 9 m/s 748 mmHg 89%
    22:00 +8°C° 0.1 mm 9 m/s 748 mmHg 88%
    23:00 +7°C° 0.1 mm 9 m/s 748 mmHg 87%

    Poimâine, 22 Februarie, Sâmbătă

    Timp Temperatura Precipitaţii Vânt Presiune Umiditate
    00:00 +6°C° 0.1 mm 9 m/s 748 mmHg 86%
    01:00 +6°C° 0 mm 9 m/s 748 mmHg 85%
    02:00 +5°C° 0 mm 9 m/s 748 mmHg 85%
    03:00 +3°C° 0 mm 10 m/s 747 mmHg 84%
    04:00 +3°C° 0.4 mm 9 m/s 748 mmHg 87%
    05:00 +2°C° 0.4 mm 9 m/s 748 mmHg 89%
    06:00 +1°C° 0.4 mm 9 m/s 749 mmHg 92%
    07:00 +1°C° 0.4 mm 9 m/s 749 mmHg 91%
    08:00 +1°C° 0.4 mm 9 m/s 750 mmHg 90%
    09:00 +1°C° 0.4 mm 9 m/s 750 mmHg 89%
    10:00 +1°C° 0.3 mm 10 m/s 751 mmHg 86%
    11:00 +1°C° 0.3 mm 10 m/s 752 mmHg 83%
    12:00 +2°C° 0.3 mm 11 m/s 753 mmHg 80%
    13:00 +1°C° 0.2 mm 10 m/s 753 mmHg 82%
    14:00 +1°C° 0.2 mm 10 m/s 753 mmHg 83%
    15:00 +1°C° 0.2 mm 10 m/s 753 mmHg 85%
    16:00 +1°C° 0.2 mm 10 m/s 754 mmHg 86%
    17:00 0°C° 0.2 mm 9 m/s 754 mmHg 87%
    18:00 0°C° 0.2 mm 9 m/s 754 mmHg 89%
    19:00 0°C° 0 mm 8 m/s 755 mmHg 88%
    20:00 -1°C° 0 mm 8 m/s 755 mmHg 88%
    21:00 -1°C° 0 mm 8 m/s 756 mmHg 88%
    22:00 -1°C° 0.1 mm 8 m/s 756 mmHg 89%
    23:00 -1°C° 0.1 mm 7 m/s 756 mmHg 91%

    23 Februarie, Duminică

    Timp Temperatura Precipitaţii Vânt Presiune Umiditate
    00:00 0°C° 0.1 mm 7 m/s 756 mmHg 92%
    01:00 0°C° 0.2 mm 7 m/s 756 mmHg 93%
    02:00 +1°C° 0.2 mm 6 m/s 756 mmHg 94%
    03:00 +1°C° 0.2 mm 5 m/s 756 mmHg 95%
    04:00 +1°C° 0.4 mm 5 m/s 756 mmHg 96%
    05:00 0°C° 0.4 mm 4 m/s 756 mmHg 96%
    06:00 0°C° 0.4 mm 4 m/s 755 mmHg 97%
    07:00 +1°C° 0.1 mm 4 m/s 756 mmHg 95%
    08:00 +1°C° 0.1 mm 5 m/s 756 mmHg 93%
    09:00 +1°C° 0.1 mm 5 m/s 757 mmHg 90%
    10:00 +2°C° 0.1 mm 6 m/s 758 mmHg 84%
    11:00 +2°C° 0.1 mm 7 m/s 759 mmHg 78%
    12:00 +2°C° 0.1 mm 8 m/s 760 mmHg 71%
    13:00 +3°C° 0 mm 7 m/s 760 mmHg 70%
    14:00 +4°C° 0 mm 7 m/s 761 mmHg 68%
    15:00 +4°C° 0 mm 6 m/s 762 mmHg 66%
    16:00 +3°C° 0 mm 5 m/s 762 mmHg 72%
    17:00 +3°C° 0 mm 4 m/s 763 mmHg 78%
    18:00 +2°C° 0 mm 3 m/s 764 mmHg 83%
    19:00 +2°C° 0 mm 3 m/s 764 mmHg 83%
    20:00 +2°C° 0 mm 2 m/s 764 mmHg 83%
    21:00 +2°C° 0 mm 2 m/s 764 mmHg 83%
    22:00 +2°C° 0 mm 3 m/s 764 mmHg 81%
    23:00 +1°C° 0 mm 4 m/s 763 mmHg 78%

    24 Februarie, Luni

    Timp Temperatura Precipitaţii Vânt Presiune Umiditate
    00:00 +1°C° 0 mm 4 m/s 762 mmHg 76%
    01:00 0°C° 1.1 mm 7 m/s 760 mmHg 82%
    02:00 0°C° 1.1 mm 9 m/s 758 mmHg 88%
    03:00 -1°C° 1.1 mm 11 m/s 756 mmHg 95%
    04:00 +1°C° 2.2 mm 10 m/s 753 mmHg 95%
    05:00 +3°C° 2.2 mm 10 m/s 751 mmHg 95%
    06:00 +5°C° 2.2 mm 9 m/s 749 mmHg 95%
    07:00 +6°C° 1.3 mm 10 m/s 748 mmHg 93%
    08:00 +8°C° 1.3 mm 10 m/s 747 mmHg 92%
    09:00 +9°C° 1.3 mm 10 m/s 746 mmHg 90%
    10:00 +8°C° 0.1 mm 11 m/s 746 mmHg 87%
    11:00 +7°C° 0.1 mm 11 m/s 746 mmHg 85%
    12:00 +5°C° 0.1 mm 12 m/s 746 mmHg 82%
    13:00 +6°C° 0 mm 11 m/s 747 mmHg 79%
    14:00 +6°C° 0 mm 11 m/s 747 mmHg 76%
    15:00 +4°C° 0 mm 11 m/s 747 mmHg 73%
    16:00 +4°C° 0 mm 11 m/s 748 mmHg 73%
    17:00 +3°C° 0 mm 11 m/s 748 mmHg 73%
    18:00 +2°C° 0 mm 10 m/s 748 mmHg 74%
    19:00 +2°C° 0 mm 10 m/s 749 mmHg 74%
    20:00 +2°C° 0 mm 9 m/s 749 mmHg 75%
    21:00 +1°C° 0 mm 9 m/s 750 mmHg 75%
    22:00 +1°C° 0 mm 8 m/s 750 mmHg 76%
    23:00 0°C° 0 mm 8 m/s 750 mmHg 78%

    25 Februarie, Marţi

    Timp Temperatura Precipitaţii Vânt Presiune Umiditate
    00:00 0°C° 0 mm 7 m/s 750 mmHg 79%
    01:00 0°C° 0 mm 7 m/s 750 mmHg 80%
    02:00 0°C° 0 mm 7 m/s 750 mmHg 81%
    03:00 -1°C° 0 mm 6 m/s 749 mmHg 81%
    04:00 -1°C° 0 mm 6 m/s 749 mmHg 82%
    05:00 -1°C° 0 mm 6 m/s 748 mmHg 82%
    06:00 -1°C° 0 mm 6 m/s 748 mmHg 83%
    07:00 -1°C° 0.4 mm 7 m/s 747 mmHg 87%
    08:00 0°C° 0.4 mm 7 m/s 747 mmHg 90%
    09:00 0°C° 0.4 mm 7 m/s 747 mmHg 94%
    10:00 +1°C° 0.1 mm 8 m/s 747 mmHg 88%
    11:00 +2°C° 0.1 mm 8 m/s 746 mmHg 82%
    12:00 +2°C° 0.1 mm 8 m/s 746 mmHg 77%
    13:00 +4°C° 0.2 mm 8 m/s 746 mmHg 77%
    14:00 +4°C° 0.2 mm 8 m/s 745 mmHg 78%
    15:00 +4°C° 0.2 mm 8 m/s 745 mmHg 78%
    16:00 +1°C° 0.6 mm 8 m/s 744 mmHg 81%
    17:00 0°C° 0.6 mm 8 m/s 744 mmHg 83%
    18:00 -1°C° 0.6 mm 8 m/s 744 mmHg 86%
    19:00 -1°C° 0 mm 7 m/s 744 mmHg 86%
    20:00 -2°C° 0 mm 7 m/s 743 mmHg 87%
    21:00 -2°C° 0 mm 7 m/s 743 mmHg 88%
    22:00 -2°C° 0.3 mm 7 m/s 743 mmHg 87%
    23:00 -3°C° 0.3 mm 7 m/s 743 mmHg 86%
    Arată mai mult